STARLINK-32825, 62825

Orbit data source: Space-Track

STARLINK-32825, 62825 is a payload satellite owned by SpaceX/Seattle (US) in LEO that was launched on Fri, 24 Jan 2025 UTC via an FALCON 9 launch vehicle from the Air Force Western Test Range (AFWTR). Payload-class satellites include a variety of spacecraft equipped with specific instruments for various scientific and technological missions. These include communications satellites like Starlink; space stations such as the ISS; scientific satellites like the Hubble; Earth observation satellites from companies like Planet Labs, Umbra, and HawkEye 360; GPS; miniature CubeSats for education and research; and military/defense satellites.

Loading next visibility...
Identifier
62825, 2025-018V
Orbit
LEO
Country
Flag of USUS
Related business
Manufacturer
SpaceX/Seattle
Mission
Operational Commercial Communications
Bus & Motor
STARLINK V2M, Unknown motor
Mass
730 kg wet, ~700 kg dry
Launch date (UTC)
2025-01-24 (8 months ago)
Launch vehicle
FALCON 9
Launch site
Air Force Western Test Range (AFWTR)
Object type
Payload
Rocket body
Debris
Shape & HBR
Box + 2 Pan, 14.5 m
Radar Cross Section
33.884 m², Large (>1 m²)

Expand to show TLE details & history
Last TLE update: 15 hours ago

TLE from 15 hours ago
0 STARLINK-32825
1 62825U 25018V   25258.57298726  .00030032  00000-0  10215-2 0  9996
2 62825  53.1608  40.4060 0001227  95.6979 264.4162 15.30215175 36395
Epoch: 2025-09-15T13:45Z
TLE epoch observation values (Epoch: 2025-09-15T13:45:06.099Z)
Latitude
0.00001°
Longitude
-160.64511°
Altitude
476.151 km
Speed
7.629 km/s
True Right ascension
02h 41m 37s
True Declination
0° 00' 00"
Sunlit
Object was in full shadow at epoch
Visualization orbit readout
Latitude
Unknown
Longitude
Unknown
Altitude
Unknown
Speed
Unknown
Apparent Right ascension
Unknown
Apparent Declination
Unknown
Sunlit
N/A
Visualization observer readout
Local Sidereal Time
21:30:41
Azimuth
Unknown
Elevation
Unknown
Doppler factor
Unknown
Orbital elements
Apogee altitude
476.267 km
Perigee altitude
474.585 km
Semi-major axis
6,853.563 km
Eccentricity
0.00012
Inclination
53.1608°
RAAN
40.406°
Arg. of periapsis
95.6979°
True anomaly
264.40221°
Mean anomaly
264.4162°
Eccentric anomaly
264.4092°
Mean motion
3.82533 °/min
Orbital period
94.11 mins
BSTAR
0.0010215
Loading maneuver chart data...
Computing Atmospheric mass density...
Loading historical data...
Loading historical data...
Loading historical data...
Loading historical data...
Loading historical data...
Loading historical data...
Loading historical data...

Documentation

Showing up to 5 results
|